Back to catalog

COSMOS 2251 DEB

AliveLEO
NORAD 35835·DEBRIS·🇷🇺 Russia

Launched Jun 16, 1993 from Plesetsk Cosmodrome

Loading…

Next Passes (next 24 hours)

TLE

AgingSource: Space-Track

Epoch: Sep 11, 2026, 12:15 UTC

1 35835U 93036ATH 26254.51077428  .00000622  00000-0  42002-3 0  9999
2 35835  74.0632 169.4241 0293736 248.3083 108.6533 13.83637264654715

Track COSMOS 2251 DEB in real time with AllMySat

Download on the App Store